| time (UTC) | temp F | wind direction | speed MPH | gust MPH | rain 1hr in | rain 24hr in | rain mn in | humidity % | barometer mb |
| 20260502224042 | 53 | 349 | 0.0 | 4.0 | 0.00 | 0.00 | 0.00 | 45 | 1011.0 |
| 20260502223544 | 54 | 355 | 2.0 | 4.0 | 0.00 | 0.00 | 0.00 | 43 | 1010.8 |
| 20260502223056 | 54 | 326 | 0.0 | 6.0 | 0.00 | 0.00 | 0.00 | 43 | 1010.9 |
| 20260502222541 | 54 | 326 | 3.0 | 8.0 | 0.00 | 0.00 | 0.00 | 42 | 1010.8 |
| 20260502222041 | 54 | 331 | 3.0 | 9.0 | 0.00 | 0.00 | 0.00 | 41 | 1010.8 |
| 20260502221541 | 54 | 318 | 4.0 | 9.0 | 0.00 | 0.00 | 0.00 | 41 | 1010.9 |
| 20260502221040 | 55 | 327 | 1.0 | 5.0 | 0.00 | 0.00 | 0.00 | 41 | 1010.8 |
| 20260502220540 | 55 | 342 | 1.0 | 8.0 | 0.00 | 0.00 | 0.00 | 44 | 1010.8 |
| 20260502220040 | 55 | 338 | 2.0 | 4.0 | 0.00 | 0.00 | 0.00 | 44 | 1010.7 |
| 20260502215540 | 55 | 340 | 0.0 | 5.0 | 0.00 | 0.00 | 0.00 | 44 | 1010.5 |
| 20260502215039 | 55 | 340 | 2.0 | 6.0 | 0.00 | 0.00 | 0.00 | 41 | 1010.5 |
| 20260502214540 | 55 | 346 | 2.0 | 5.0 | 0.00 | 0.00 | 0.00 | 41 | 1010.6 |
| 20260502214039 | 55 | 311 | 1.0 | 5.0 | 0.00 | 0.00 | 0.00 | 42 | 1010.5 |
| 20260502213538 | 55 | 295 | 2.0 | 6.0 | 0.00 | 0.00 | 0.00 | 45 | 1010.5 |
| 20260502213045 | 56 | 17 | 0.0 | 4.0 | 0.00 | 0.00 | 0.00 | 44 | 1010.4 |
| 20260502212540 | 56 | 17 | 1.0 | 4.0 | 0.00 | 0.00 | 0.00 | 45 | 1010.5 |
| 20260502212038 | 56 | 11 | 1.0 | 3.0 | 0.00 | 0.00 | 0.00 | 43 | 1010.3 |
| 20260502211539 | 56 | 11 | 1.0 | 3.0 | 0.00 | 0.00 | 0.00 | 47 | 1010.3 |
| 20260502211038 | 56 | 11 | 0.0 | 3.0 | 0.00 | 0.00 | 0.00 | 46 | 1010.2 |
| 20260502210537 | 56 | 11 | 0.0 | 1.0 | 0.00 | 0.00 | 0.00 | 53 | 1010.3 |
| 20260502210040 | 56 | 11 | 0.0 | 2.0 | 0.00 | 0.00 | 0.00 | 47 | 1010.3 |
| 20260502205536 | 56 | 11 | 0.0 | 4.0 | 0.00 | 0.00 | 0.00 | 45 | 1010.3 |
| 20260502205036 | 57 | 11 | 0.0 | 4.0 | 0.00 | 0.00 | 0.00 | 45 | 1010.2 |
| 20260502204536 | 57 | 339 | 2.0 | 6.0 | 0.00 | 0.00 | 0.00 | 43 | 1010.2 |
| 20260502204036 | 57 | 340 | 2.0 | 6.0 | 0.00 | 0.00 | 0.00 | 42 | 1010.1 |
| 20260502203538 | 57 | 28 | 2.0 | 4.0 | 0.00 | 0.00 | 0.00 | 42 | 1010.2 |
| 20260502203044 | 58 | 29 | 2.0 | 4.0 | 0.00 | 0.00 | 0.00 | 41 | 1010.2 |
| 20260502202534 | 58 | 77 | 0.0 | 4.0 | 0.00 | 0.00 | 0.00 | 41 | 1010.3 |
| 20260502202033 | 58 | 80 | 0.0 | 3.0 | 0.00 | 0.00 | 0.00 | 47 | 1010.3 |
| 20260502201538 | 57 | 80 | 0.0 | 4.0 | 0.00 | 0.00 | 0.00 | 47 | 1010.4 |
| 20260502201033 | 57 | 85 | 0.0 | 4.0 | 0.00 | 0.00 | 0.00 | 48 | 1010.4 |
| 20260502200532 | 57 | 85 | 1.0 | 3.0 | 0.00 | 0.00 | 0.00 | 43 | 1010.5 |
| 20260502200032 | 57 | 84 | 0.0 | 4.0 | 0.00 | 0.00 | 0.00 | 44 | 1010.6 |
| 20260502195531 | 57 | 84 | 1.0 | 4.0 | 0.00 | 0.00 | 0.00 | 45 | 1010.6 |
| 20260502195030 | 57 | 84 | 1.0 | 4.0 | 0.00 | 0.00 | 0.00 | 46 | 1010.6 |
| 20260502194531 | 57 | 85 | 1.0 | 4.0 | 0.00 | 0.00 | 0.00 | 47 | 1010.7 |
| 20260502194030 | 58 | 90 | 2.0 | 5.0 | 0.00 | 0.00 | 0.00 | 45 | 1010.7 |
| 20260502193532 | 58 | 32 | 1.0 | 5.0 | 0.00 | 0.00 | 0.00 | 46 | 1010.8 |
| 20260502193029 | 58 | 349 | 2.0 | 5.0 | 0.00 | 0.00 | 0.00 | 47 | 1010.8 |
| 20260502192527 | 58 | 319 | 1.0 | 4.0 | 0.00 | 0.00 | 0.00 | 52 | 1011.0 |
| 20260502192027 | 57 | 220 | 1.0 | 4.0 | 0.00 | 0.00 | 0.00 | 52 | 1010.9 |
| 20260502191529 | 57 | 212 | 1.0 | 3.0 | 0.00 | 0.00 | 0.00 | 50 | 1011.0 |
| 20260502191026 | 56 | 131 | 0.0 | 3.0 | 0.00 | 0.00 | 0.00 | 55 | 1011.1 |
| 20260502190526 | 56 | 131 | 0.0 | 4.0 | 0.00 | 0.00 | 0.00 | 52 | 1011.1 |
| 20260502190029 | 56 | 131 | 1.0 | 4.0 | 0.00 | 0.00 | 0.00 | 52 | 1011.1 |
| 20260502185529 | 58 | 89 | 1.0 | 6.0 | 0.00 | 0.00 | 0.00 | 58 | 1011.1 |
| 20260502185025 | 62 | 90 | 3.0 | 6.0 | 0.00 | 0.00 | 0.00 | 57 | 1011.1 |
| 20260502184528 | 59 | 84 | 1.0 | 4.0 | 0.00 | 0.00 | 0.00 | 54 | 1011.0 |
| 20260502184023 | 57 | 84 | 2.0 | 6.0 | 0.00 | 0.00 | 0.00 | 56 | 1011.1 |
| 20260502183523 | 57 | 91 | 2.0 | 7.0 | 0.00 | 0.00 | 0.00 | 58 | 1011.2 |
| 20260502183028 | 56 | 86 | 0.0 | 4.0 | 0.00 | 0.00 | 0.00 | 60 | 1011.2 |
| 20260502182522 | 56 | 86 | 1.0 | 4.0 | 0.00 | 0.00 | 0.00 | 55 | 1011.1 |
| 20260502182021 | 56 | 86 | 2.0 | 4.0 | 0.00 | 0.00 | 0.00 | 59 | 1011.1 |
| 20260502181523 | 56 | 86 | 1.0 | 4.0 | 0.00 | 0.00 | 0.00 | 57 | 1011.2 |
| 20260502181021 | 56 | 86 | 0.0 | 6.0 | 0.00 | 0.00 | 0.00 | 59 | 1011.1 |
| 20260502180521 | 56 | 86 | 1.0 | 7.0 | 0.00 | 0.00 | 0.00 | 58 | 1011.2 |
| 20260502170519 | 57 | 53 | 3.0 | 6.0 | 0.00 | 0.00 | 0.00 | 62 | 1011.6 |
| 20260502164014 | 57 | 88 | 3.0 | 5.0 | 0.00 | 0.00 | 0.00 | 70 | 1011.7 |
| 20260502163514 | 56 | 196 | 2.0 | 5.0 | 0.00 | 0.00 | 0.00 | 67 | 1011.8 |
| 20260502163013 | 57 | 143 | 1.0 | 7.0 | 0.00 | 0.00 | 0.00 | 75 | 1011.9 |
| 20260502162513 | 54 | 221 | 4.0 | 7.0 | 0.00 | 0.00 | 0.00 | 69 | 1011.9 |
| 20260502162012 | 54 | 91 | 0.0 | 6.0 | 0.00 | 0.00 | 0.00 | 75 | 1011.9 |
| 20260502161511 | 54 | 91 | 1.0 | 7.0 | 0.00 | 0.00 | 0.00 | 72 | 1012.0 |
| 20260502161012 | 53 | 86 | 2.0 | 5.0 | 0.00 | 0.00 | 0.00 | 75 | 1012.2 |
| 20260502160513 | 55 | 119 | 1.0 | 4.0 | 0.00 | 0.00 | 0.00 | 71 | 1012.0 |
| 20260502152009 | 54 | 92 | 3.0 | 9.0 | 0.00 | 0.00 | 0.00 | 81 | 1012.4 |
| 20260502151506 | 53 | 85 | 2.0 | 9.0 | 0.00 | 0.00 | 0.00 | 84 | 1012.5 |
| 20260502151005 | 53 | 84 | 3.0 | 7.0 | 0.00 | 0.00 | 0.00 | 80 | 1012.6 |
| 20260502150504 | 53 | 98 | 3.0 | 7.0 | 0.00 | 0.00 | 0.00 | 84 | 1012.5 |
| 20260502130552 | 46 | 360 | 2.0 | 8.0 | 0.00 | 0.00 | 0.00 | 91 | 1012.3 |
| 20260502123549 | 47 | 360 | 1.0 | 6.0 | 0.00 | 0.00 | 0.00 | 94 | 1012.2 |
| 20260502123048 | 47 | 360 | 2.0 | 4.0 | 0.00 | 0.00 | 0.00 | 94 | 1012.2 |
| 20260502122548 | 47 | 360 | 1.0 | 3.0 | 0.00 | 0.00 | 0.00 | 94 | 1012.2 |
| 20260502122047 | 47 | 360 | 0.0 | 4.0 | 0.00 | 0.00 | 0.00 | 95 | 1012.1 |
| 20260502121547 | 47 | 360 | 2.0 | 4.0 | 0.00 | 0.00 | 0.00 | 95 | 1012.1 |
| 20260502121047 | 47 | 360 | 1.0 | 3.0 | 0.00 | 0.00 | 0.00 | 95 | 1012.2 |
| 20260502120546 | 47 | 360 | 1.0 | 4.0 | 0.00 | 0.00 | 0.00 | 95 | 1012.1 |
| 20260502115547 | 47 | 360 | 2.0 | 4.0 | 0.00 | 0.00 | 0.00 | 94 | 1012.0 |
| 20260502115147 | 47 | 360 | 0.0 | 3.0 | 0.00 | 0.00 | 0.00 | 95 | 1012.1 |
| 20260502114545 | 47 | 360 | 0.0 | 4.0 | 0.00 | 0.00 | 0.00 | 95 | 1012.0 |
| 20260502114046 | 47 | 360 | 1.0 | 4.0 | 0.00 | 0.00 | 0.00 | 95 | 1012.1 |
| 20260502113545 | 47 | 360 | 1.0 | 4.0 | 0.00 | 0.00 | 0.00 | 95 | 1012.1 |
| 20260502113048 | 47 | 360 | 1.0 | 3.0 | 0.00 | 0.00 | 0.00 | 95 | 1012.0 |
| 20260502112545 | 46 | 360 | 0.0 | 2.0 | 0.00 | 0.00 | 0.00 | 95 | 1012.0 |
| 20260502112043 | 46 | 360 | 0.0 | 3.0 | 0.00 | 0.00 | 0.00 | 94 | 1011.9 |
| 20260502111543 | 46 | 360 | 1.0 | 4.0 | 0.00 | 0.00 | 0.00 | 94 | 1011.9 |
| 20260502111043 | 46 | 360 | 1.0 | 4.0 | 0.00 | 0.00 | 0.00 | 94 | 1011.8 |
| 20260502110543 | 46 | 360 | 1.0 | 4.0 | 0.00 | 0.00 | 0.00 | 94 | 1011.8 |
| 20260502110047 | 46 | 360 | 1.0 | 6.0 | 0.00 | 0.00 | 0.00 | 94 | 1011.8 |
| 20260502105542 | 46 | 360 | 3.0 | 5.0 | 0.00 | 0.00 | 0.00 | 94 | 1011.8 |
| 20260502105043 | 46 | 360 | 1.0 | 4.0 | 0.00 | 0.00 | 0.00 | 94 | 1011.7 |
| 20260502104544 | 46 | 360 | 1.0 | 4.0 | 0.00 | 0.00 | 0.00 | 94 | 1011.8 |
| 20260502104041 | 46 | 360 | 1.0 | 2.0 | 0.00 | 0.00 | 0.00 | 94 | 1011.8 |
| 20260502103541 | 46 | 360 | 1.0 | 3.0 | 0.00 | 0.00 | 0.00 | 94 | 1011.6 |
| 20260502103041 | 46 | 360 | 1.0 | 3.0 | 0.00 | 0.00 | 0.00 | 94 | 1011.7 |
| 20260502102541 | 46 | 360 | 1.0 | 3.0 | 0.00 | 0.00 | 0.00 | 94 | 1011.5 |
| 20260502102041 | 45 | 360 | 2.0 | 3.0 | 0.00 | 0.00 | 0.00 | 94 | 1011.4 |
| 20260502101551 | 45 | 360 | 1.0 | 2.0 | 0.00 | 0.00 | 0.00 | 94 | 1011.5 |
| 20260502101040 | 45 | 360 | 0.0 | 2.0 | 0.00 | 0.00 | 0.00 | 94 | 1011.3 |
| 20260502100540 | 46 | 360 | 0.0 | 2.0 | 0.00 | 0.00 | 0.00 | 94 | 1011.4 |
| 20260502091035 | 46 | 360 | 1.0 | 4.0 | 0.00 | 0.00 | 0.00 | 94 | 1011.2 |
| 20260502090537 | 46 | 360 | 1.0 | 4.0 | 0.00 | 0.00 | 0.00 | 94 | 1011.2 |
| 20260502071523 | 46 | 360 | 3.0 | 5.0 | 0.00 | 0.00 | 0.00 | 93 | 1011.8 |
| 20260502071023 | 46 | 360 | 3.0 | 8.0 | 0.00 | 0.00 | 0.00 | 93 | 1011.7 |
| 20260502070523 | 46 | 360 | 3.0 | 10.0 | 0.00 | 0.00 | 0.00 | 93 | 1011.9 |
| 20260502070037 | 46 | 360 | 4.0 | 10.0 | 0.00 | 0.00 | 0.00 | 93 | 1012.0 |
| 20260502065522 | 46 | 360 | 4.0 | 8.0 | 0.00 | 0.00 | 0.00 | 93 | 1012.1 |
| 20260502065024 | 46 | 360 | 3.0 | 8.0 | 0.00 | 0.00 | 0.00 | 93 | 1012.0 |
| 20260502064520 | 46 | 360 | 4.0 | 6.0 | 0.00 | 0.00 | 0.00 | 93 | 1012.0 |
| 20260502064019 | 46 | 360 | 2.0 | 5.0 | 0.00 | 0.00 | 0.00 | 93 | 1011.8 |
| 20260502063520 | 47 | 360 | 2.0 | 4.0 | 0.00 | 0.00 | 0.00 | 92 | 1011.8 |
| 20260502063023 | 47 | 360 | 0.0 | 6.0 | 0.00 | 0.00 | 0.00 | 92 | 1011.9 |
| 20260502062518 | 47 | 360 | 1.0 | 6.0 | 0.00 | 0.00 | 0.00 | 92 | 1012.0 |
| 20260502062016 | 47 | 360 | 0.0 | 3.0 | 0.00 | 0.00 | 0.00 | 92 | 1012.0 |
| 20260502061517 | 47 | 360 | 1.0 | 3.0 | 0.00 | 0.00 | 0.00 | 92 | 1012.0 |
| 20260502061016 | 47 | 360 | 1.0 | 3.0 | 0.00 | 0.00 | 0.00 | 92 | 1011.8 |
| 20260502060515 | 47 | 360 | 0.0 | 3.0 | 0.00 | 0.00 | 0.00 | 92 | 1011.9 |
| 20260502060027 | 47 | 360 | 1.0 | 3.0 | 0.00 | 0.00 | 0.00 | 92 | 1011.9 |
| 20260502055515 | 47 | 360 | 1.0 | 3.0 | 0.00 | 0.00 | 0.00 | 92 | 1011.9 |
| 20260502055018 | 47 | 360 | 0.0 | 3.0 | 0.00 | 0.00 | 0.00 | 92 | 1011.9 |
| 20260502054524 | 47 | 360 | 0.0 | 3.0 | 0.00 | 0.00 | 0.00 | 92 | 1012.0 |
| 20260502054013 | 47 | 360 | 1.0 | 3.0 | 0.00 | 0.00 | 0.00 | 91 | 1012.1 |
| 20260502053513 | 47 | 360 | 0.0 | 2.0 | 0.00 | 0.00 | 0.00 | 91 | 1012.0 |
| 20260502053013 | 48 | 360 | 0.0 | 2.0 | 0.00 | 0.00 | 0.00 | 91 | 1011.8 |
| 20260502052518 | 48 | 360 | 1.0 | 2.0 | 0.00 | 0.00 | 0.00 | 91 | 1011.8 |
| 20260502052012 | 48 | 360 | 0.0 | 1.0 | 0.00 | 0.00 | 0.00 | 91 | 1011.7 |
| 20260502051512 | 48 | 360 | 0.0 | 1.0 | 0.00 | 0.00 | 0.00 | 90 | 1011.9 |
| 20260502051017 | 48 | 360 | 0.0 | 0.0 | 0.00 | 0.00 | 0.00 | 90 | 1011.9 |
| 20260502050510 | 48 | 360 | 0.0 | 1.0 | 0.00 | 0.00 | 0.00 | 90 | 1011.9 |
| 20260502050017 | 47 | 360 | 0.0 | 2.0 | 0.00 | 0.00 | 0.00 | 89 | 1012.0 |
| 20260502045510 | 48 | 360 | 0.0 | 2.0 | 0.00 | 0.00 | 0.00 | 88 | 1012.0 |
| 20260502045014 | 48 | 360 | 0.0 | 0.0 | 0.00 | 0.00 | 0.00 | 88 | 1012.0 |
| 20260502044509 | 48 | 360 | 0.0 | 3.0 | 0.00 | 0.00 | 0.00 | 88 | 1012.0 |
| 20260502044008 | 48 | 360 | 0.0 | 3.0 | 0.00 | 0.00 | 0.00 | 88 | 1012.0 |
| 20260502043513 | 48 | 360 | 1.0 | 3.0 | 0.00 | 0.00 | 0.00 | 88 | 1012.0 |
| 20260502043007 | 48 | 360 | 0.0 | 2.0 | 0.00 | 0.00 | 0.00 | 88 | 1011.9 |
| 20260502042506 | 48 | 360 | 0.0 | 2.0 | 0.00 | 0.00 | 0.00 | 88 | 1011.9 |
| 20260502042005 | 48 | 360 | 0.0 | 1.0 | 0.00 | 0.00 | 0.00 | 88 | 1011.8 |
| 20260502041512 | 48 | 360 | 0.0 | 2.0 | 0.00 | 0.00 | 0.00 | 87 | 1011.8 |
| 20260502041004 | 48 | 360 | 0.0 | 3.0 | 0.00 | 0.00 | 0.00 | 87 | 1011.8 |
| 20260502040503 | 48 | 360 | 1.0 | 3.0 | 0.00 | 0.00 | 0.00 | 87 | 1011.9 |
| 20260502040004 | 48 | 360 | 1.0 | 2.0 | 0.00 | 0.00 | 0.00 | 86 | 1011.8 |
| 20260502035502 | 49 | 360 | 0.0 | 2.0 | 0.00 | 0.00 | 0.00 | 86 | 1011.8 |
| 20260502035002 | 48 | 360 | 0.0 | 2.0 | 0.00 | 0.00 | 0.00 | 86 | 1011.8 |
| 20260502034501 | 48 | 360 | 0.0 | 2.0 | 0.00 | 0.00 | 0.00 | 86 | 1011.9 |
| 20260502034002 | 48 | 360 | 0.0 | 4.0 | 0.00 | 0.00 | 0.00 | 86 | 1011.9 |
| 20260502033503 | 48 | 360 | 1.0 | 4.0 | 0.00 | 0.00 | 0.00 | 86 | 1011.9 |
| 20260502033003 | 48 | 360 | 1.0 | 3.0 | 0.00 | 0.00 | 0.00 | 85 | 1011.8 |
| 20260502032502 | 48 | 360 | 0.0 | 1.0 | 0.00 | 0.00 | 0.00 | 86 | 1011.7 |
| 20260502032100 | 49 | 360 | 0.0 | 1.0 | 0.00 | 0.00 | 0.00 | 85 | 1011.7 |
| 20260502031602 | 49 | 360 | 0.0 | 1.0 | 0.00 | 0.00 | 0.00 | 85 | 1011.7 |
| 20260502031102 | 49 | 360 | 0.0 | 1.0 | 0.00 | 0.00 | 0.00 | 84 | 1011.8 |
| 20260502030559 | 49 | 360 | 0.0 | 1.0 | 0.00 | 0.00 | 0.00 | 82 | 1011.8 |
| 20260502030118 | 50 | 360 | 0.0 | 1.0 | 0.00 | 0.00 | 0.00 | 80 | 1011.8 |
| 20260502025558 | 50 | 320 | 0.0 | 2.0 | 0.00 | 0.00 | 0.00 | 77 | 1011.9 |
| 20260502025058 | 51 | 323 | 0.0 | 2.0 | 0.00 | 0.00 | 0.00 | 73 | 1011.8 |
| 20260502024606 | 51 | 323 | 0.0 | 1.0 | 0.00 | 0.00 | 0.00 | 71 | 1011.6 |
| 20260502024058 | 51 | 360 | 0.0 | 1.0 | 0.00 | 0.00 | 0.00 | 68 | 1011.6 |
| 20260502023558 | 51 | 323 | 0.0 | 2.0 | 0.00 | 0.00 | 0.00 | 67 | 1011.4 |
| 20260502023135 | 51 | 323 | 0.0 | 1.0 | 0.00 | 0.00 | 0.00 | 68 | 1011.5 |
| 20260502022603 | 51 | 323 | 0.0 | 0.0 | 0.00 | 0.00 | 0.00 | 66 | 1011.6 |
| 20260502022056 | 52 | 323 | 0.0 | 0.0 | 0.00 | 0.00 | 0.00 | 66 | 1011.5 |
| 20260502021556 | 52 | 323 | 0.0 | 0.0 | 0.00 | 0.00 | 0.00 | 67 | 1011.4 |
| 20260502021056 | 52 | 323 | 0.0 | 0.0 | 0.00 | 0.00 | 0.00 | 66 | 1011.5 |
| 20260502020556 | 52 | 323 | 0.0 | 0.0 | 0.00 | 0.00 | 0.00 | 65 | 1011.5 |
| 20260502020103 | 52 | 323 | 0.0 | 2.0 | 0.00 | 0.00 | 0.00 | 64 | 1011.5 |
| 20260502015557 | 52 | 323 | 0.0 | 2.0 | 0.00 | 0.00 | 0.00 | 63 | 1011.6 |
| 20260502015056 | 52 | 323 | 0.0 | 0.0 | 0.00 | 0.00 | 0.00 | 65 | 1011.5 |
| 20260502014606 | 52 | 323 | 0.0 | 0.0 | 0.00 | 0.00 | 0.00 | 66 | 1011.5 |
| 20260502014056 | 53 | 323 | 0.0 | 1.0 | 0.00 | 0.00 | 0.00 | 65 | 1011.5 |
| 20260502013556 | 53 | 323 | 0.0 | 1.0 | 0.00 | 0.00 | 0.00 | 62 | 1011.4 |
| 20260502013101 | 53 | 323 | 0.0 | 2.0 | 0.00 | 0.00 | 0.00 | 62 | 1011.5 |
| 20260502012556 | 53 | 323 | 0.0 | 2.0 | 0.00 | 0.00 | 0.00 | 61 | 1011.5 |
| 20260502012056 | 53 | 323 | 0.0 | 2.0 | 0.00 | 0.00 | 0.00 | 62 | 1011.5 |
| 20260502011607 | 53 | 323 | 0.0 | 2.0 | 0.00 | 0.00 | 0.00 | 63 | 1011.4 |
| 20260502011054 | 53 | 323 | 0.0 | 2.0 | 0.00 | 0.00 | 0.00 | 63 | 1011.4 |
| 20260502010554 | 53 | 323 | 0.0 | 2.0 | 0.00 | 0.00 | 0.00 | 61 | 1011.4 |
| 20260502010055 | 53 | 323 | 1.0 | 2.0 | 0.00 | 0.00 | 0.00 | 61 | 1011.3 |
| 20260502005555 | 53 | 323 | 0.0 | 2.0 | 0.00 | 0.00 | 0.00 | 60 | 1011.4 |
| 20260502005057 | 54 | 323 | 0.0 | 5.0 | 0.00 | 0.00 | 0.00 | 58 | 1011.3 |
| 20260502004555 | 54 | 323 | 0.0 | 4.0 | 0.00 | 0.00 | 0.00 | 57 | 1011.2 |
| 20260502004055 | 55 | 323 | 1.0 | 4.0 | 0.00 | 0.00 | 0.00 | 56 | 1011.1 |
| 20260502003555 | 54 | 323 | 0.0 | 3.0 | 0.00 | 0.00 | 0.00 | 56 | 1011.1 |
| 20260502003054 | 55 | 323 | 0.0 | 4.0 | 0.00 | 0.00 | 0.00 | 56 | 1011.1 |
| 20260502002556 | 55 | 323 | 1.0 | 4.0 | 0.00 | 0.00 | 0.00 | 56 | 1011.0 |
| 20260502002053 | 55 | 324 | 1.0 | 6.0 | 0.00 | 0.00 | 0.00 | 55 | 1011.0 |
| 20260502001600 | 56 | 324 | 3.0 | 6.0 | 0.00 | 0.00 | 0.00 | 54 | 1010.8 |
| 20260502001052 | 56 | 311 | 2.0 | 6.0 | 0.00 | 0.00 | 0.00 | 54 | 1010.9 |
| 20260502000553 | 56 | 305 | 1.0 | 9.0 | 0.00 | 0.00 | 0.00 | 55 | 1010.8 |
| 20260501235553 | 56 | 301 | 2.0 | 6.0 | 0.00 | 0.00 | 0.00 | 53 | 1010.9 |
| 20260501235052 | 56 | 300 | 2.0 | 5.0 | 0.00 | 0.00 | 0.00 | 53 | 1010.8 |
| 20260501234552 | 56 | 312 | 1.0 | 9.0 | 0.00 | 0.00 | 0.00 | 53 | 1010.9 |
| 20260501234052 | 57 | 331 | 3.0 | 9.0 | 0.00 | 0.00 | 0.00 | 53 | 1010.9 |
| 20260501233552 | 57 | 253 | 2.0 | 8.0 | 0.00 | 0.00 | 0.00 | 52 | 1010.8 |
| 20260501233109 | 57 | 250 | 2.0 | 8.0 | 0.00 | 0.00 | 0.00 | 52 | 1010.8 |
| 20260501232552 | 57 | 340 | 2.0 | 9.0 | 0.00 | 0.00 | 0.00 | 51 | 1010.7 |
| 20260501232052 | 57 | 276 | 3.0 | 10.0 | 0.00 | 0.00 | 0.00 | 50 | 1010.7 |
| 20260501231613 | 58 | 331 | 3.0 | 10.0 | 0.00 | 0.00 | 0.00 | 50 | 1010.6 |
| 20260501231051 | 58 | 281 | 4.0 | 8.0 | 0.00 | 0.00 | 0.00 | 49 | 1010.5 |
| 20260501230551 | 58 | 287 | 3.0 | 10.0 | 0.00 | 0.00 | 0.00 | 48 | 1010.4 |
| 20260501230116 | 58 | 317 | 4.0 | 10.0 | 0.00 | 0.00 | 0.00 | 47 | 1010.2 |
| 20260501225552 | 59 | 338 | 4.0 | 9.0 | 0.00 | 0.00 | 0.00 | 46 | 1010.1 |
| 20260501225051 | 59 | 244 | 3.0 | 10.0 | 0.00 | 0.00 | 0.00 | 46 | 1010.0 |
| 20260501224556 | 59 | 276 | 6.0 | 10.0 | 0.00 | 0.00 | 0.00 | 44 | 1010.1 |